Kezdőlap
METAR-TAF:

METAR-TAF

Repülőterek :

Faribault Municipal Airport

Faribault, Minnesota, Amerikai Egyesült Államok

földrajzi szélesség: 44-20N, földrajzi hosszúság: 093-19W, magasság: 322 m

Jelenlegi meteorológiai megfigyelések

A jelentés 22 perccel ezelõtt készült, 18:16 UTC
Dél-délkeleti szél 15 kt széllökések: 20 kt
Hőmérséklet 9°C
Páratartalom 71%
Légköri nyomás 1016 hPa
Látótávolság: 16.1 km

METAR: KFBL 011816Z 15015G20KT 10SM 09/04 A2999 RMK AO2

Idő: 13:38 (18:38 UTC)


TAF: hiányzik

Meteorológiai megfigyelések és előrejelzések több, mint 4000 repülőtéren (METAR és TAF jelentéseket).

A térképen piros és sárga pontok jelzik az elérhető meteorológiai állomásokat.

Mozgassa az egeret a pont fölött, hogy megjelenjen az állomás neve.

Azután kattintson az időjárási megfigyelések és előrejelzések megtekintéséhez.

A térkép megváltoztatása: kattintson a fekete keresztel jelölt zöld gombra ráközelítéshez, a vonallal jelölt zöld gombra távolításhoz, vagy a zöld nyilakra a szomszédos térképek eléréséhez.


METAR-TAF: